Overview Statistics Trail Chart Weather Telemetry Raw packets
 

This is the latest recevied weather packets stored in our database for station/object SP6FIG. If no packets are shown the sender has not sent any weather packets the latest 10 day(s).

<< 10 11 12 13 14 15 16 >>
Time Temp. Humidity Pressure Rain* Wind** Luminosity Snow
1777566713 22.78° C 33% 979.4 hPa - - - -
1777566113 22.78° C 33% 979.6 hPa - - - -
1777565513 22.78° C 32% 979.7 hPa - - - -
1777564913 23.33° C 32% 979.6 hPa - - - -
1777564313 23.33° C 33% 979.7 hPa - - - -
1777563713 22.78° C 33% 979.8 hPa - - - -
1777563113 22.78° C 32% 979.8 hPa - - - -
1777562513 23.33° C 31% 979.8 hPa - - - -
1777561913 22.78° C 30% 979.9 hPa - - - -
1777561313 22.78° C 28% 979.9 hPa - - - -
1777560713 22.78° C 28% 979.9 hPa - - - -
1777560113 22.78° C 28% 980 hPa - - - -
1777559513 23.33° C 29% 980.1 hPa - - - -
1777558913 23.33° C 31% 980.2 hPa - - - -
1777558313 23.33° C 30% 980.2 hPa - - - -
1777557713 23.33° C 29% 980.3 hPa - - - -
1777557113 23.33° C 29% 980.4 hPa - - - -
1777556513 22.78° C 29% 980.5 hPa - - - -
1777555913 22.78° C 30% 980.6 hPa - - - -
1777555313 22.78° C 31% 980.6 hPa - - - -
1777554713 22.78° C 30% 980.6 hPa - - - -
1777554113 22.78° C 29% 980.6 hPa - - - -
1777553513 22.78° C 30% 980.8 hPa - - - -
1777552913 22.22° C 33% 981 hPa - - - -
1777552313 22.22° C 35% 981 hPa - - - -

* Rain since midnight (hover to see other rain measurements)
** Current wind speed in m/s (hover to see current wind gust speed)